Regional Weather Roundup
Issued by NWS Wakefield, VA

Home | Current Version | Previous Version | Text Only | Print | Product List | Glossary On
Versions: 1 2 3 4 5 6 7 8 9 10 11 12 13 14 15 16 17 18 19 20 21 22 23 24 25 26 27 28
000
ASUS41 KAKQ 212215
RWRAKQ

REGIONAL WEATHER ROUNDUP
NATIONAL WEATHER SERVICE WAKEFIELD VA
500 PM EST SAT JAN 21 2017

Note: "fair" indicates few or no clouds below 12,000 feet with no
significant weather and/or obstructions to visibility. * = Denotes
station may not report precipitation (e.g., rain,snow,etc.),
thunder or fog.

VAZ042-051-052>054-056-212300-
NORTHERN VIRGINIA

CITY           SKY/WX    TMP DP  RH WIND       PRES   REMARKS
WASH NATIONAL  CLOUDY    50  49  96 S6        29.83R
DULLES         CLOUDY    49  47  93 S8        29.82R FOG
FORT BELVOIR   CLOUDY    48  48 100 SE3       29.82S
QUANTICO       FOG       49  49 100 CALM      29.83S VSB 3/4
FREDERICKSBRG* CLOUDY    51  51 100 SE3       29.81F FOG
STAFFORD*      CLOUDY    50  50 100 CALM      29.85S FOG
WARRENTON      CLOUDY    51  47  87 CALM      29.82R FOG
CULPEPER*      CLOUDY    50  50  98 CALM      29.83S FOG
MANASSAS*      CLOUDY   N/A N/A N/A CALM      29.82S FOG
LEESBURG*      CLOUDY    50  50 100 S5        29.82R FOG
WINCHESTER     CLOUDY    45  45 100 CALM      29.78S FOG
FRONT ROYAL*   CLOUDY    46  45  93 NE5       29.78R
LURAY*         FAIR      52  50  93 NE6       29.76S
$$

VAZ048-049-060>072-079>083-212300-
CENTRAL AND SOUTH CENTRAL VIRGINIA

CITY           SKY/WX    TMP DP  RH WIND       PRES   REMARKS
RICHMOND       CLOUDY    50  50 100 SE3       29.81F FOG
CHESTERFIELD*  CLOUDY    52  36  54 SE5       29.82F
PETERSBURG*    CLOUDY    52  50  93 CALM      29.82F FOG
HANOVER        CLOUDY    50  48  93 CALM      29.83S FOG
TAPPAHANNOCK*  CLOUDY    51  51 100 SE3       29.83S FOG
QUINTON*       CLOUDY    50  50 100 S6        29.82S FOG
CHARLOTTSVILLE CLOUDY    52  49  89 N5        29.80F FOG
GORDONSVILLE*  CLOUDY    50  50 100 CALM      29.81S FOG
ORANGE*          N/A     50  50 100 CALM      29.83F FOG
LOUISA*        CLOUDY    55  54  94 CALM      29.80S FOG
BUMPASS*       CLOUDY    50  50 100 S7        29.82S
FARMVILLE*     FOG       55  55 100 CALM      29.78F VSB 1
CREWE*         CLOUDY    52  52 100 CALM      29.79F
FORT PICKETT*  CLOUDY   N/A N/A N/A E6        29.80F VSB 3/4
CHASE CITY*    CLOUDY    53  52  95 MISG      29.78F
CLARKSVILLE*   CLOUDY    52  52 100 E5        29.79F
SOUTH HILL*    CLOUDY    52  52 100 CALM      29.85F
LAWRENCEVILLE* CLOUDY    51  50  97 SE3       29.80F VSB 1/4
EMPORIA*       FOG       50  50 100 E3        29.83F VSB 1
$$

VAZ088>098-212300-
SOUTHEAST VIRGINIA

CITY           SKY/WX    TMP DP  RH WIND       PRES   REMARKS
NORFOLK        CLOUDY    52  48  86 N3        29.83S
VIRGINIA BEACH CLOUDY    52  48  86 S3        29.83S
NORFOLK NAVAL  CLOUDY    51  48  89 NE3       29.85S
WEST POINT*    CLOUDY    50  49  98 CALM      29.83F
SALUDA*        CLOUDY    48  48 100 SE5       29.83S
NEWPORT NEWS   CLOUDY    52  50  93 CALM      29.83F
LANGLEY AFB    CLOUDY    52  50  93 NE5       29.82F
FORT EUSTIS    CLOUDY    52  49  89 CALM      29.81R
WILLIAMSBURG*  CLOUDY    52  52 100 CALM      29.84S
HR EXEC AP*    CLOUDY    54  48  82 CALM      29.82F
FRANKLIN*      CLOUDY    52  51  95 CALM      29.83F FOG
US460-WAKEFLD  CLOUDY    53  52  96 CALM      29.82S FOG
$$

VAZ020-022-025-037-045-212300-
WEST CENTRAL AND SOUTHWEST VIRGINIA

CITY           SKY/WX    TMP DP  RH WIND       PRES   REMARKS
STAUNTON*      CLOUDY    57  49  75 S6        29.77S
WAYNESBORO*    FAIR      53  47  80 CALM      29.76S
HOT SPRINGS VA CLOUDY    52  45  76 S7        29.77F
LYNCHBURG      FOG       51  51 100 NE3       29.78F VSB 1
DANVILLE       CLOUDY    54  54 100 SE3       29.77F
SOUTH BOSTON*  CLOUDY    55  53  95 E3        29.78F
MARTINSVILLE   CLOUDY    52  51  97 CALM      29.79F FOG
ROANOKE        CLOUDY    51  49  92 E6        29.77F
BLACKSBURG     CLOUDY    53  51  92 E5        29.77F
DUBLIN*        CLOUDY    51  51 100 CALM      29.75F
MARION*        CLOUDY    54  50  87 E6        29.73F
HILLSVILLE*    LGT RAIN  55  51  86 CALM      29.71F
RICHLANDS*     CLOUDY    57  46  65 E5        29.68F
WISE*          LGT RAIN  55  45  67 CALM      29.72R
ABINGDON*      CLOUDY    58  52  79 CALM      29.68F
$$

MDZ021>025-VAZ099-100-212300-
SOUTHERN MARYLAND AND THE DELMARVA PENINSULA

CITY           SKY/WX    TMP DP  RH WIND       PRES   REMARKS
PATUXENT RIVER FOG       45  45 100 SE5       29.83S VSB 1/4
BAY BRIDGE APT FOG       46  46 100 SE3       29.83F VSB 1
LEONARDTOWN    CLOUDY    46  45  93 CALM      29.84S
DOVER          CLOUDY    45  45 100 E3        29.83R
GEORGETOWN     CLOUDY    51  47  86 W3        29.84S
EASTON         CLOUDY    48  46  93 S3        29.87S
CAMBRIDGE      CLOUDY    45  45 100 CALM      29.84R
SALISBURY      CLOUDY    50  48  93 CALM      29.84R
OCEAN CITY     FOG       45  45 100 VRB5      29.84F VSB 1/4
WALLOPS ISLAND FOG       46  46 100 S6        29.85S VSB 1/4
ACCOMACK*      CLOUDY    48  47  97 S5        29.84F
$$

NCZ012>017-030>032-212300-
NORTH CENTRAL AND EASTERN NORTH CAROLINA

CITY           SKY/WX    TMP DP  RH WIND       PRES   REMARKS
ROANOKE RAPIDS FOG       52  52 100 CALM      29.81F VSB 1/4
RALEIGH        LGT RAIN  54  53  97 E5        29.77F VSB 1
ELIZABETH CITY FOG       50  49  96 E5        29.83F VSB 1/2
AHOSKIE*         N/A     53  52  97 CALM      29.82F FOG
EDENTON*       CLOUDY    55  52  89 CALM      29.83F
CURRITUCK*     CLOUDY    52  52 100 CALM      29.84F
KILL DEVIL HLS NOT AVBL
MANTEO         CLOUDY    52  52 100 CALM      29.85S
CAPE HATTERAS  CLOUDY    55  52  89 N7        29.82S
TARBORO*       NOT AVBL
GOLDSBORO      CLOUDY    58  58  99 E7        29.76S FOG
WASHINGTON     CLOUDY    56  52  85 NE5         N/A
GREENVILLE     DRIZZLE   59  55  88 E7        29.82F
NEW BERN       LGT RAIN  58  55  90 E5        29.80F
WILMINGTON     MOCLDY    63  61  93 E6        29.76F
$$

VAZ048-212300-
ELSEWHERE

CITY           SKY/WX    TMP DP  RH WIND       PRES   REMARKS
HARRISBURG PA  DRZL/FOG  46  46 100 CALM      29.80F VSB 1/4
BALTIMORE      FOG       46  46 100 E6        29.81F VSB 1/4
ANNAPOLIS      FOG       46  45  96 S7        29.83F VSB 1
ANDREWS AFB    CLOUDY    48  47  97 CALM      29.81S
PHILADELPHIA   FOG       46  45  96 SW6       29.84S VSB 1/2
HENDERSON NC   LGT RAIN  51  50  97 SE3       29.78F
GREENSBORO     HVY RAIN  54  54 100 E7        29.73F FOG
ROCKY MOUNT    LGT RAIN  54  54 100 NE5       29.79F VSB 1/4
$$

VAZ100-212300-
MARINE

STATION/POSITION TIME  TEMP    WIND        PRES    WAVE   SWELL
                       AIR SEA DIR/SP/G            HT/PER HT/PER
                 (UTC) (F)     (DEG/KT/KT) (MB)    (FT/S) (FT/S)
CAPE MAY NJ      2148   44 42  140/  3/  3 1010.0S
LEWES DE         2142   47 42  140/  4/  5 1010.1F
OCEAN-CITY-INLET 2142   44 43  200/  4/  7 1010.9F
WACHAPREAGUE VA  2142   47 48  190/  5/  6 1010.6S
THOMAS POINT MD  2200   42 40  180/  6/  7   N/A
GOOSES REEF MD   2150   43     170/ 10/ 12 1010.8F
COVE POINT MD    2142   42     190/  6/  7 1010.8S
SOLOMONS ISLAND  2148           90/  5/  5   N/A
BISHOPS HEAD MD  2142   43 45  140/  4/  4 1010.6F
PINEY POINT MD   2148          110/  5/  5   N/A
POTOMAC MD       2150   43     170/  6/  6 1009.3F
CAMBRIDGE MD     2142   47 40  170/  5/  7 1009.5F
LEWISETTA VA     2142   48 44  150/  4/  4 1009.8R
RAPPAHANNOCK LGT 2148          170/  6/  6 1010.9F
STINGRAY PT      2150   44     180/  6/  8 1010.7F
YORK RVR RNG VA  2142   45     120/ 11/ 11 1009.5F
YORKTOWN VA      2142   45 43   80/  5/  7 1009.9F
JAMESTOWN VA     2150   49     120/  2/  4   N/A
DOMINION TERM VA 2142   49      60/  5/  6 1010.1S
KIPTOPEKE VA     2142      45  160/  4/  5   N/A
CHES BAY BRIDGE  2142   47 44  110/  5/  7 1010.1F
CAPE HENRY VA    2142   47     140/  6/  8   N/A
WILLOUBY STN VA  2142   46      80/  6/  6 1011.0F
S CRANEY ISL VA  2142   51     150/  4/  5 1009.8F
CAPE HENRY BUOY  2142      48                N/A     2/11   2/11
OFFSHORE WE BUOY 2151      49                N/A     3/10   2/11
64NM E OF VA BCH 2150   55 56   50/  4/  6 1010.2S   3/11   3/11
DUCK PIER NC     2142   49 46   CALM  /  1 1010.0S
44100 DUCK FRF   2105      49                N/A     3/10   2/11
44056 DUCK FRF   2130      48                N/A     3/10   2/11
OREGON INLET NC  2148          360/  2/  3 1010.3F
HATTERAS NC      2142   52 55   20/  6/  8 1009.3F
DIAMOND SHLS NC  2150   71 74  160/ 10/ 12 1009.4F   4/10   3/10
CAPE LOOKOUT NC  2100   65      70/  2/  3 1008.8F
$$




USA.gov is the U.S. government's official web portal to all federal, state and local government web resources and services.